LogoCoinalyze
    Ad-Free Version Home Markten Financieringspercentages
    Futures data
    • Aggregated data (Munten)
    • Individuele grafieken
    • Globale grafieken
    Meldingen
    TA
    Bitcoin Ethereum BNB Ripple Tron ZCash Dogecoin Monero Chainlink UNUS SED LEO Cardano Stellar Lumens Bitcoin Cash Litecoin Hedera Cronos Polkadot Ethereum Classic Algorand Cosmos Quant Dash VeChain Bitcoin SV BitTorrent Terra Decred Tezos Iota The Graph THETA Decentraland NEO Chiliz MultiversX Horizen Golem Basic Attention Token Qtum DigiByte 0x Beam RIF Token FTX Token Holo FUNToken Ontology Zilliqa Nano Enjin Coin Ravencoin aelf Mask Network Verge Siacoin Status WINk Waves IoTeX iExec RLC Power Ledger Steem Kyber Network Crystal Lisk Ark WOO Network Ardor IOST WAX Icon Storj Wanchain Loopring Bitcoin Diamond Augur AdEx Bitcoin Gold OmiseGO NEM MonaCoin BitShares Ren Komodo V Systems Nuls Mithril SOLVE Maker EOS Aion Nebulas HedgeTrade Bread Fetch.ai TomoChain Polygon Fantom Waltonchain GXChain Bytom Metaverse ETP MaidSafeCoin QASH
    Rangschikken op:
    Meer
    • API
    • Candlestick-patronen
    • Doneer
    • Contact
    • Sitemap
    • Privacy Policy
    • Disclaimer
    • Theme:
    Nederlands
    • English
    • Français
    • Русский
    • Deutsch
    • Türkçe
    • Português (BR)
    • Español
    • 한국어
    • 简体中文
    • 日本語
     
    Aanmelden / Registreren
    Markets/ Pepe/ PEPE naar BRL/ PEPEBRL Binance
    Trades
    WL
    Chat
    Stats
    Nieuws
    ⦷
    AAA
    0.00001881 744863.00000000 01:10:48
    0.00001881 531068.00000000 01:10:48
    0.00001873 13398832.00000000 01:05:45
    0.00001867 14407805.00000000 01:04:55
    0.00001867 535619.00000000 01:04:54
    0.00001867 535619.00000000 01:04:54
    0.00001867 535619.00000000 01:04:54
    0.00001867 535619.00000000 01:04:54
    0.00001867 535619.00000000 01:04:54
    0.00001869 2351518.00000000 01:04:31
    0.00001869 17085900.00000000 01:04:28
    0.00001871 5191257.00000000 01:03:28
    0.00001877 45110934.00000000 01:01:24
    0.00001879 17085900.00000000 01:00:05
    0.00001879 17085900.00000000 01:00:05
    0.00001875 534760.00000000 00:59:52
    0.00001875 534760.00000000 00:59:52
    0.00001874 534760.00000000 00:59:52
    0.00001874 534760.00000000 00:59:52
    0.00001874 534760.00000000 00:59:52
    0.00001874 173861468.00000000 00:59:52
    0.00001875 17085900.00000000 00:59:52
    0.00001876 5994551.00000000 00:59:04
    0.00001879 533334.00000000 00:57:06
    0.00001879 533334.00000000 00:57:06
    0.00001879 533334.00000000 00:57:06
    0.00001879 533334.00000000 00:57:06
    0.00001879 533334.00000000 00:57:06
    0.00001879 199082168.00000000 00:57:06
    0.00001880 16893732.00000000 00:57:00
    0.00001880 192168.00000000 00:57:00
    0.00001880 16893732.00000000 00:57:00
    0.00001886 8130082.00000000 00:50:24
    0.00001891 1322051.00000000 00:48:37
    0.00001892 5135136.00000000 00:44:10
    0.00001900 4985500.00000000 00:42:42
    0.00001895 4985500.00000000 00:32:08
    0.00001890 1107600.00000000 00:31:05
    0.00001891 1055531.00000000 00:31:02
    0.00001894 655674.00000000 00:27:01
    0.00001893 603561.00000000 00:19:12
    0.00001896 33302000.00000000 00:18:47
    0.00001897 16216216.00000000 00:16:52
    0.00001897 869684.00000000 00:16:52
    0.00001897 16216216.00000000 00:16:52
    0.00001896 51257700.00000000 00:15:58
    0.00001894 17085900.00000000 00:13:41
    0.00001894 19240726.00000000 00:13:40
    0.00001894 27678375.00000000 00:13:39
    0.00001894 904997406.00000000 00:13:34
    0.00001894 2429400.00000000 00:13:34
    0.00001898 2429574.00000000 00:09:40
    0.00001897 5131803.00000000 00:09:36
    0.00001896 56438025.00000000 00:09:36
    0.00001903 945875.00000000 23:58:49
    0.00001899 78423652.00000000 23:56:21
    0.00001899 156654200.00000000 23:56:21
    0.00001899 17085900.00000000 23:56:21
    0.00001899 125539963.00000000 23:55:51
    0.00001898 3728778.00000000 23:55:44
    0.00001898 9872600.00000000 23:52:45
    0.00001898 28647500.00000000 23:52:45
    0.00001895 60418900.00000000 23:50:30
    0.00001893 26231983.00000000 23:47:56
    0.00001894 14441795.00000000 23:47:56
    0.00001894 528821.00000000 23:47:56
    0.00001894 528821.00000000 23:47:56
    0.00001894 528821.00000000 23:47:56
    0.00001894 528821.00000000 23:47:56
    0.00001894 528821.00000000 23:47:56
    0.00001897 5131803.00000000 23:41:18
    0.00001895 5578020.00000000 23:40:54
    0.00001887 5158999.00000000 23:36:59
    0.00001878 532482.00000000 23:29:02
    0.00001878 532482.00000000 23:29:01
    0.00001878 532482.00000000 23:29:01
    0.00001878 532482.00000000 23:29:01
    0.00001878 532482.00000000 23:29:01
    0.00001878 3094793.00000000 23:29:01
    0.00001878 532482.00000000 23:28:58
    0.00001878 532482.00000000 23:28:57
    0.00001878 532482.00000000 23:28:57
    0.00001878 532482.00000000 23:28:57
    0.00001878 532482.00000000 23:28:57
    0.00001878 14423490.00000000 23:28:57
    0.00001876 1128859.00000000 23:27:00
    0.00001873 11530500.00000000 23:23:18
    0.00001872 6830602.00000000 23:22:49
    0.00001875 118776033.00000000 23:22:28
    0.00001876 60.00000000 23:22:25
    0.00001876 176282900.00000000 23:22:23
    0.00001879 530504.00000000 23:17:05
    0.00001879 530504.00000000 23:17:05
    0.00001880 530504.00000000 23:17:05
    0.00001880 530504.00000000 23:17:05
    0.00001880 530504.00000000 23:17:05
    0.00001880 128621409.00000000 23:17:05
    0.00001879 176535268.00000000 23:17:05
    0.00001878 91021286.00000000 23:17:05
    0.00001876 14420650.00000000 23:13:46
    Afmelden
    AAA
    Help
    🙂 🤣 😎 🤗 😛 😉 😜 🤑 🤔 😑 😴 😕 🙃 😲 😇 🙁 😢 😬 😟 😠 🕺 🏃 💪 ✌ 👌 👍 👎 👏 👋 🤝 🍺 🍻 🐋 🐟 🦈 🗽 🚄 ✈ 🛑 🚀 🏦 🌚 ⭐ 🌞 ⚡ 🏆 💰 💲 🔨 ❓ ❗ 💯 🔶 🏁
    ☺
    Aanmelden of Registreren en chat
    24 Uur
    Verandering
    +7.24%
    Volume
    62,132,387,130
    Hoog
    0.00001983
    Laag
    0.00001744
    7 Dagen
    Verandering
    -6.65%
    Volume
    322,237,171,194
    Hoog
    0.00002054
    Laag
    0.00001723
    30 Dagen
    Verandering
    +26.50%
    Volume
    1,603,532,485,440
    Hoog
    0.00002350
    Laag
    0.00001325
    DOGE, SHIB, PEPE, or Something Else: Which Meme Coin Can Make History in September? (3 AIs Weigh In)
    "DOGE remains the most likely to record the largest move in dollar terms and lead the entire sector," ChatGPT stated.
    cryptopotato.com
    Sept 3, 2026 00:41
    Pepe price rallies 25% as whale demand and futures interest surge
    Key takeaways Pepe has gained 25% this week, including a combined 22% advance over the previous two days. Seven whale transactions worth more than $1 million each occurred Thursday, the highest...
    coinjournal.net
    Aug 21, 2026 08:41
    PEPE Supply on Exchanges Just Took a Massive Hit – What’s Next?
    A drop in PEPE exchange balances has added to bullish expectations despite muted trader interest.
    cryptopotato.com
    Aug 6, 2026 20:02
    PEPE Exchange Outflows Hit Nearly 2-Year High as Whales Accumulate
    Pepe (PEPE) recorded its largest single-day exchange outflow since November 2024, with 4.54 trillion tokens leaving trading platforms, signaling that holders are moving supply away from immediate...
    beincrypto.com
    Aug 6, 2026 04:57
    Meme Coin Based on White House Shooter Conspiracy Rallies 320%
    $HENRY surged 300% after a 2023 Pepe tweet appeared to name the White House shooter, fueling a viral time-travel meme. The post Meme Coin Based on White House Shooter Conspiracy Rallies 320%...
    beincrypto.com
    Apr 27, 2026 16:11
    PEPE surges 4% as market sentiment improves, eyes Key resistance breakout
    Key takeaways Pepe extends gains on Wednesday, stretching its rally from the 50-day EMA. Derivatives data show heightened retail activity as risk-on sentiment returns to the market. Pepe (PEPE) is...
    coinjournal.net
    Apr 22, 2026 11:44
    Why The PEPE Price Could Stage A 55X Rally To Reach New $0.0001 ATH
    The PEPE price has now started to edge back into bullish conversations after the recent inflows into the crypto market. The last time PEPE’s weekly chart printed the kind of structure now...
    newsbtc.com
    Apr 21, 2026 15:30
    Pepe (PEPE) surges 9%, drawing interest from whales
    Key takeaways PEPE is up 9% in the last 24 hours, making it one of the best performers among the top 50 cryptocurrencies by market cap. The rally comes amid renewed interest from whales and retail...
    coinjournal.net
    Apr 16, 2026 07:40
    Murad Says SPX6900 (SPX) Is Primed for a Rally — Is He Right This Time?
    Crypto influencer Murad Mahmudov claims SPX6900 (SPX) is stabilizing at the same market cap level where Dogecoin (DOGE) and Pepe (PEPE) consolidated before their explosive rallies. The...
    beincrypto.com
    Apr 5, 2026 21:36
    The Shiba Inu Of This Cycle: Analyst Shares Why It Is Better To Buy PEPE Now
    In the bull market cycle of 2021-2022, the Shiba Inu meme coin made waves in a way that changed the face of meme coins forever. This came after Dogecoin’s initial 36,000% rally, and Shiba Inu...
    newsbtc.com
    Apr 4, 2026 07:30
    PEPE Explodes by 18% Amid Altcoin Rally, BTC Tapped $74K: Market Watch
    The frog-themed meme coin is today's biggest gainer, followed by TAO, DOT, and BONK.
    cryptopotato.com
    Mar 16, 2026 10:56
    Should PEPE traders brace for volatility as short squeeze potential builds?
    The memecoin market has seen its collective market capitalization drop by 48% over the past year, and 6.9% over the past month, according to CoinMarketCap. According to Glassnode, the memecoin...
    ambcrypto.com
    Mar 7, 2026 18:00
    Typ de opdracht simpelweg in de chat. Vervang nick1 door de echte nick
    • /ignore nick1 Negeer een chatgebruiker
    • /unignore nick1 Een chatgebruiker niet meer negeren
    • /ignorelist Toon chatgebruikers die je negeert